TimeEDT,TemperatureF,Dew PointF,Humidity,Sea Level PressureIn,VisibilityMPH,Wind Direction,Wind SpeedMPH,Gust SpeedMPH,PrecipitationIn,Events,Conditions,WindDirDegrees,DateUTC
12:53 AM,57.0,48.0,72,30.32,10.0,NNE,3.5,-,N/A,,Overcast,20,2012-10-14 04:53:00
1:53 AM,57.0,48.0,72,30.32,10.0,North,5.8,-,N/A,,Overcast,360,2012-10-14 05:53:00
2:53 AM,57.9,48.0,70,30.30,10.0,East,3.5,-,N/A,,Overcast,80,2012-10-14 06:53:00
3:53 AM,57.9,48.9,72,30.29,10.0,North,3.5,-,N/A,,Overcast,360,2012-10-14 07:53:00
4:53 AM,57.9,48.9,72,30.26,10.0,Calm,Calm,-,N/A,,Overcast,0,2012-10-14 08:53:00
5:53 AM,57.9,48.9,72,30.26,10.0,North,3.5,-,N/A,,Overcast,360,2012-10-14 09:53:00
6:53 AM,57.9,51.1,78,30.27,10.0,Calm,Calm,-,N/A,,Overcast,0,2012-10-14 10:53:00
7:53 AM,59.0,51.1,75,30.27,10.0,Calm,Calm,-,N/A,,Overcast,0,2012-10-14 11:53:00
8:53 AM,60.1,51.1,72,30.28,10.0,Calm,Calm,-,N/A,,Overcast,0,2012-10-14 12:53:00
9:53 AM,62.1,50.0,65,30.27,10.0,North,3.5,-,N/A,,Overcast,10,2012-10-14 13:53:00
10:22 AM,62.6,50.0,63,30.28,10.0,Calm,Calm,-,N/A,,Overcast,0,2012-10-14 14:22:00
10:53 AM,63.0,50.0,63,30.26,10.0,Calm,Calm,-,N/A,,Overcast,0,2012-10-14 14:53:00
11:09 AM,64.4,50.0,59,30.27,10.0,Calm,Calm,-,N/A,,Overcast,0,2012-10-14 15:09:00
11:40 AM,64.4,51.8,64,30.27,10.0,WNW,3.5,-,N/A,,Overcast,290,2012-10-14 15:40:00
11:53 AM,64.0,51.1,63,30.26,10.0,Calm,Calm,-,N/A,,Overcast,0,2012-10-14 15:53:00
12:30 PM,64.4,51.8,64,30.26,10.0,Calm,Calm,-,N/A,,Overcast,0,2012-10-14 16:30:00
12:53 PM,66.9,55.0,66,30.24,10.0,South,4.6,-,N/A,,Overcast,190,2012-10-14 16:53:00
1:23 PM,66.2,55.4,68,30.24,10.0,West,5.8,-,0.00,Rain,Light Rain,280,2012-10-14 17:23:00
1:34 PM,66.2,55.4,68,30.23,10.0,West,4.6,-,0.00,,Overcast,270,2012-10-14 17:34:00
1:49 PM,66.2,55.4,68,30.23,10.0,WNW,4.6,-,0.00,Rain,Light Rain,300,2012-10-14 17:49:00
1:53 PM,66.0,55.9,70,30.21,10.0,Calm,Calm,-,0.00,Rain,Light Rain,0,2012-10-14 17:53:00
2:09 PM,66.2,55.4,68,30.21,10.0,Calm,Calm,-,0.00,,Overcast,0,2012-10-14 18:09:00
2:16 PM,68.0,55.4,64,30.21,10.0,Calm,Calm,-,0.00,,Overcast,0,2012-10-14 18:16:00
2:53 PM,68.0,57.0,68,30.18,10.0,Variable,5.8,-,0.00,,Overcast,0,2012-10-14 18:53:00
4:53 PM,69.1,59.0,70,30.13,10.0,WSW,5.8,-,N/A,,Partly Cloudy,250,2012-10-14 20:53:00
5:53 PM,69.1,59.0,70,30.12,10.0,West,4.6,-,N/A,,Mostly Cloudy,280,2012-10-14 21:53:00
6:53 PM,66.9,59.0,76,30.09,10.0,SSW,3.5,-,N/A,,Clear,200,2012-10-14 22:53:00
7:53 PM,64.9,59.0,81,30.09,10.0,Calm,Calm,-,N/A,,Clear,0,2012-10-14 23:53:00
8:53 PM,64.9,60.1,84,30.07,10.0,Calm,Calm,-,N/A,,Clear,0,2012-10-15 00:53:00
9:53 PM,63.0,59.0,87,30.06,10.0,Calm,Calm,-,N/A,,Clear,0,2012-10-15 01:53:00
10:53 PM,63.0,59.0,87,30.06,10.0,Calm,Calm,-,N/A,,Mostly Cloudy,0,2012-10-15 02:53:00
11:53 PM,63.0,59.0,87,30.05,10.0,Calm,Calm,-,N/A,,Overcast,0,2012-10-15 03:53:00